Location: Brunembert
(50.7122°N, 1.8935°E)
Time: 04:03:22
(UTC+00:00)

Cosmos 1844 - Pass Details

Date: 22 April 2021
Orbit: 823 x 867 km, 70.9° (Epoch: 06 May)

Event Time Altitude Azimuth Distance (km) Brightness Sun altitude
Exits shadow 23:41:40 60° 107° (ESE) 984 3.8 -26.7°
Drops below altitude 10° 23:47:09 10° 35° (NE) 2,491 6.8 -26.7°
Sets 23:49:37 0° 32° (NNE) 3,424 7.7 -26.8°
